Regional Weather Roundup
Issued by NWS

Home | Current Version | Previous Version | Graphics & Text | Print | Product List | Glossary On
Versions: 1 2 3 4 5 6 7 8 9 10 11 12 13 14 15 16 17 18 19 20 21 22 23 24 25 26 27 28 29 30 31 32 33 34 35 36 37 38 39 40 41 42 43 44 45 46 47 48 49 50
000
ASUS43 KIND 042309
RWRIN

WEATHER ROUNDUP FOR INDIANA
NATIONAL WEATHER SERVICE INDIANAPOLIS IN
700 PM EDT SAT JUL 04 2015

NOTE: "FAIR" INDICATES FEW OR NO CLOUDS BELOW 12,000 FEET WITH NO
SIGNIFICANT WEATHER AND/OR OBSTRUCTIONS TO VISIBILITY.

* - STATION DOES NOT REPORT WEATHER SUCH AS PRECIPITATION OR FOG.

+ - STATION NOT QUALITY CONTROLLED BY THE NATIONAL WEATHER SERVICE.
    USE DATA WITH CAUTION...ESPECIALLY DEWPOINT AND RELATIVE
    HUMIDITY OBSERVATIONS.

INZ001>003-010>013-019-020-050000-
NORTHWEST INDIANA

CITY           SKY/WX    TMP DP  RH WIND       PRES   REMARKS
KNOX *+        SUNNY     77  55  47 NW3       29.98F
LA PORTE +     SUNNY     79  60  51 CALM      30.00F
MICHIGAN CITY+ SUNNY     77  57  50 N3        30.00F
MONTICELLO +   MOSUNNY   78  60  52 CALM      29.98F
RENSSELAER +   SUNNY     79  59  50 W3        29.99F
VALPARAISO     SUNNY     79  58  48 VRB3      30.00F

$$

LMZ046-743>745-050000-
SOUTHERN LAKE MICHIGAN

STATION/POSITION TIME  TEMP    WIND        PRES    WAVE
                       AIR SEA DIR/SP/G            HT
                 (UTC) (F)     (DEG/KT/KT) (MB)    (FT)
BURNS HARBOR     2300   71      70/  9/ 10 1016.3S
MICHIGAN CITY    2300   67      30/  9/ 10   N/A
5NW MICH CITY    2300   67 65   80/  6/  6   N/A     1

$$

INZ004-005-014>016-021>024-050000-
NORTH CENTRAL INDIANA

CITY           SKY/WX    TMP DP  RH WIND       PRES   REMARKS
GOSHEN         SUNNY     76  61  59 W7        30.00F
LOGANSPORT +   SUNNY     77  52  41 CALM      30.00F
PERU/GRISSOM   SUNNY     77  59  53 N7        29.99F
ROCHESTER +    SUNNY     79  59  50 CALM      30.00F
SOUTH BEND     SUNNY     78  57  48 NW6       30.01F
WARSAW +         N/A     77  59  53 W3        30.01S

$$

INZ006>009-017-018-025>027-050000-
NORTHEAST INDIANA

CITY           SKY/WX    TMP DP  RH WIND       PRES   REMARKS
ANGOLA *+        N/A     79  73  83 NW3       30.01F
AUBURN +       SUNNY     77  54  44 NW3       30.02S
FORT WAYNE     PTSUNNY   78  57  48 NW5       30.00F
HUNTINGTON +   SUNNY     77  57  50 N5        30.00S

$$

INZ028-029-035-036-043>045-051>053-050000-
WEST CENTRAL INDIANA

CITY           SKY/WX    TMP DP  RH WIND       PRES   REMARKS
CRAWFORDSVL +  SUNNY     76  52  43 CALM      29.99F
GREENCASTLE +  SUNNY     77  55  47 NW3       29.99F
LAFAYETTE      SUNNY     78  59  51 W6        29.98F
TERRE HAUTE    SUNNY     79  62  56 NE6       29.98F

$$

INZ030>032-037>040-046>048-054>057-064-065-050000-
CENTRAL INDIANA

CITY           SKY/WX    TMP DP  RH WIND       PRES   REMARKS
CP ATTERBURY + MOSUNNY   79  63  57 N5        29.99S
COLUMBUS       MOSUNNY   77  61  57 NE5       29.99S
FRANKFORT +    SUNNY     78  60  54 NW3       30.02S
GREENWOOD *+   SUNNY     79  55  44 NW3       29.99F
INDIANAPOLIS   MOSUNNY   80  55  42 NW6       29.98S
-EAGLE CREEK   SUNNY     79  53  40 N5        29.98F
KOKOMO *+      MOSUNNY   79  59  50 N6        29.99F
MARION +       SUNNY     76  56  50 N3        30.01S
MT COMFORT *+  SUNNY     79  46  31 N6        29.99F
SHELBYVILLE    SUNNY     81  63  54 CALM      29.98F
ZIONSVILLE +   MOSUNNY   79  57  47 N5        30.00F

$$

INZ033-034-041-042-049-050-058-059-050000-
EAST CENTRAL INDIANA

CITY           SKY/WX    TMP DP  RH WIND       PRES   REMARKS
MUNCIE         SUNNY     78  57  48 NW9       30.00F

$$

INZ060-061-067>069-081>083-085>088-050000-
SOUTHWEST INDIANA

CITY           SKY/WX    TMP DP  RH WIND       PRES   REMARKS
EVANSVILLE     PTSUNNY   81  68  64 NE5       29.96F
HUNTINGBURG *+ PTSUNNY   79  66  65 NE5       29.97S
WASHINGTON +   PTSUNNY   78  64  62 N3        29.96F

$$

INZ062-063-066-070>080-084-089>092-050000-
SOUTH CENTRAL AND SOUTHEAST INDIANA

CITY           SKY/WX    TMP DP  RH WIND       PRES   REMARKS
BLOOMINGTON    MOSUNNY   80  62  54 NE5       29.98F
MADISON *+     PTSUNNY   81  61  50 NE6       30.00F
NORTH VERNON + SUNNY     81  61  50 NE6       29.99F
SEYMOUR +      CLOUDY    81  64  57 NE5       29.97F

$$




USA.gov is the U.S. government's official web portal to all federal, state and local government web resources and services.